Tracking 19709 objects as of 19-Jun-2019
HD Live streaming from Space Station
objects crossing your sky now

COSMOS 2145

Track COSMOS 2145 now!
10-day predictions
COSMOS 2145 is classified as:


NORAD ID: 21301
Int'l Code: 1991-033C
Perigee: 1,410.3 km
Apogee: 1,424.5 km
Inclination: 82.6 °
Period: 114.0 minutes
Semi major axis: 7788 km
RCS: 1.1428 m2 (large)
Launch date: May 16, 1991
Source: Commonwealth of Independent States (former USSR) (CIS)
Launch site: PLESETSK MISSILE AND SPACE COMPLEX (PKMTR)
aabbcc
Your satellite tracking list
Your tracking list is empty




NASA's NSSDC Master Catalog

Two Line Element Set (TLE):
1 21301U 91033C   19169.86493951  .00000007  00000-0 -18108-4 0  9994
2 21301  82.5666 142.6185 0009148 123.1027 237.0943 12.63080487295145
Source of the keplerian elements: AFSPC